This is the latest recevied weather packets stored in our database for station/object DL9GJ-6. If no packets are shown the sender has not sent any weather packets the latest 10 day(s).
| Time | Temp. | Humidity | Pressure | Rain* | Wind** | Luminosity | Snow |
|---|---|---|---|---|---|---|---|
| 1777840704 | 15° C | 57% | 1013.4 hPa | 0 mm | - | 0 W/m² | - |
| 1777840344 | 15° C | 56% | 1013.3 hPa | 0 mm | - | 0 W/m² | - |
| 1777840332 | 15° C | 56% | 1013.3 hPa | 0 mm | - | 0 W/m² | - |
| 1777839984 | 15.56° C | 57% | 1013.3 hPa | 0 mm | - | 0 W/m² | - |
| 1777839623 | 15.56° C | 57% | 1013.2 hPa | 0 mm | - | 0 W/m² | - |
| 1777839611 | 15.56° C | 57% | 1013.2 hPa | 0 mm | - | 0 W/m² | - |
| 1777839263 | 15.56° C | 57% | 1013.2 hPa | 0 mm | - | 0 W/m² | - |
| 1777839251 | 15.56° C | 57% | 1013.2 hPa | 0 mm | - | 0 W/m² | - |
| 1777838903 | 15.56° C | 58% | 1013.1 hPa | 0 mm | - | 0 W/m² | - |
| 1777838889 | 15.56° C | 58% | 1013.1 hPa | 0 mm | - | 0 W/m² | - |
| 1777838544 | 16.11° C | 61% | 1013 hPa | 0 mm | - | 0 W/m² | - |
| 1777838532 | 16.11° C | 61% | 1013 hPa | 0 mm | - | 0 W/m² | - |
| 1777838184 | 16.11° C | 64% | 1012.9 hPa | 0 mm | - | 0 W/m² | - |
| 1777837823 | 16.67° C | 62% | 1012.9 hPa | 0 mm | - | 0 W/m² | - |
| 1777837464 | 17.22° C | 60% | 1012.7 hPa | 0 mm | - | 0 W/m² | - |
| 1777837104 | 17.22° C | 59% | 1012.4 hPa | 0 mm | - | 0 W/m² | - |
| 1777836744 | 17.78° C | 58% | 1012.4 hPa | 0 mm | - | 0 W/m² | - |
| 1777836383 | 17.78° C | 58% | 1012.3 hPa | 0 mm | - | 0 W/m² | - |
| 1777836023 | 17.22° C | 59% | 1012.3 hPa | 0 mm | - | 0 W/m² | - |
| 1777835663 | 17.22° C | 59% | 1012 hPa | 0 mm | - | 0 W/m² | - |
| 1777835650 | 17.22° C | 59% | 1012 hPa | 0 mm | - | 0 W/m² | - |
| 1777835303 | 17.22° C | 59% | 1011.9 hPa | 0 mm | - | 0 W/m² | - |
| 1777834943 | 17.22° C | 59% | 1011.8 hPa | 0 mm | - | 0 W/m² | - |
| 1777834584 | 17.22° C | 59% | 1011.7 hPa | 0 mm | - | 0 W/m² | - |
| 1777834224 | 17.78° C | 59% | 1011.6 hPa | 0 mm | - | 0 W/m² | - |
* Rain latest hour (hover to see other rain measurements)
** Current wind speed in m/s (hover to see current wind gust speed)